{"data":{"norad_id":47792,"intl_designator":"2021-018F","name":"STARLINK-2334","alt_names":[],"object_type":"PAYLOAD","status":"ACTIVE","operator":null,"country":"US","launch_date":"2021-03-11","launch_site_code":"AFETR","launch_vehicle":null,"mission":null,"orbit_class":"UNKNOWN","rcs_meters":null,"size_class":null,"mass_kg":null,"dimensions":null,"purposes":["comms"],"wikipedia_slug":null,"has_3d_model":false,"image_url":null,"decayed_at":null,"tle_current":{"epoch":"2026-09-20T00:24:02.530080Z","epoch_age_seconds":68868,"freshness":"FRESH","line1":"1 47792U 21018F   26263.01669595  .00002251  00000+0  84278-4 0  9993","line2":"2 47792  53.1608  54.7841 0000956 101.7080 258.4029 15.31699885306543","mean_motion":15.31699885,"eccentricity":9.56e-5,"inclination_deg":53.1608,"raan_deg":54.7841,"arg_perigee_deg":101.708,"mean_anomaly_deg":258.4029,"bstar":8.4278e-5,"rev_number":30654,"period_min":94.013195019597,"perigee_km":470.08558536117,"apogee_km":471.3950907082,"semimajor_km":6848.8773380347,"source":"CELESTRAK","updated_at":"2026-09-20T09:00:38.605306Z"}}}